ORBCOMM FM116

Last updated on Sun Jun 21 2026 00:03:16 GMT+0000 (Coordinated Universal Time)

1 41189U 15081L 26171.24654257 .00000372 00000+0 11477-3 0 9994 2 41189 47.0018 256.1563 0000513 99.1383 260.9561 14.58886945559382
UTC large
Height (km)
Speed (km/s)
/
Latitude / Longitude
Inclination (degrees)
Orbital Period (minutes)
Azimuth
Elevation
Range (km)
Doppler Factor

Next 0 passes for location: London (51.5072 / 0.1276)

No passes found over London.
ORBCOMM FM116